AQI (53)

Current Conditions for Foresthill, CA. Overcast, Dry   
Visibility: 10 miles
Cloud ht: 1,200 ft Foresthill Advisory text: No Warning

  Summary / Temperature 

Current Temperature
54.2°F
12.3°C
(24/hr Ago)
68.1°F
(Apparent temp)
54.1°F
Cool
Wind Chill Graphs
54.2°F 

56.1°F/ 13.4°C
 --- Virtual Temp: 56.7°F ---

 Temp Rate:

 24/hr Difference:

 Avg Running Temp:

 Todays High:

 Todays Low:

 Y-days High:

 Y-days Low:

 Todays WChill:

 Y-days WChill:

 Evapotranspiration:

-0.5°F/hr 

-13.9°F

55.7°F

57.1°F 11:31am

51.2°F 7:31am

70.7°F 1:53pm

56.0°F 8:17am

45.5°F 7:57am

53.0°F 6:43am

0.021 in

115' Above Ground

 Temperature:

 6'AGL VRS 115'AGL:

 Avg Running Temp:

 Humidity:

 Todays High:

 Todays Low:

 Y-days High:

 Y-days Low:

52.0°F 

-2.2°F

54.8°F

86% 

58.0°F 12:00am

51.0°F 2:39am

73.0°F 1:06pm

58.0°F 11:29pm

Temp & Humidity Graphs

  Wind 

Wind Speed

 Calm

Gusting to

 6.0 mph

Calm

258°  

Calm

 Avg speed:

 Wind Run:

 Peak Gust:

Calm 

22.0 miles

  18.0 mph 7:55am

  Almanac  

Moon age: 7 days,13 hours,41 minutes,52%

Waxing Gibbous
58%
Illuminated
8 days in cycle

 Moonrise:

 Moonset:

 Sunrise:

 Sunset:

 Solar Noon:

2:17pm

12:27am

7:30am

6:04pm

12:47pm

2min 18s less daylight tomorrow 

  Solar Radiation 

(Current Solar)
  19 W/m2 (3%)
(Todays High)
 594 W/m2@9:50am
Feels like: 57.9°F in the sun

Rain

 Rain Today:

 Rain Rate (/hr):

 Rain last hour:

 Rain Yesterday:

 This Month:

 Season Total:

4 Days Since Last Rain Day

0.00 in

0.000 in

0.00 in

0.00 in

1.70 in

3.54 in

Updated Time

Updated: 10/31/14  12:48pm

(Updated  sec ago)

Humidity & Barometer

 Humidity:

 Wetbulb:

 Dew Point:

 Barometer:

83% 

51.4°F 

49.1°F 

29.868 inHg 

 Baro Trend:  Steady 
Northern Calif
Preparedness
Fire 
Level 

    UV Index  

(Current UV)
0.0  None
(Todays High) @ 11:07am
2.5   Low

Weather Underground 5 day Forecast

Fri Sat Sun Mon Tue
 b?/b - T-storms  Rain Clear Partly Cloudy Clear
 ? - T-storms  Rain Clear Partly Cloudy Clear
59 48 57 61 66
45 41 43 46 55

Foresthill Probe 2 Stats  
Foresthill Probe 2: is located on Thomas Street
at 3000 feet. The main Foresthill Weather site
is located on Melody ln at the 2860 foot elevation

Calm
53.3°F
11.8°C
Temp Rate:
-1.1°F
Calm
Gusting to
2.0 mph
(Humidity)
85%
Wind from WNW
291°  WNW
Updated: 31/10/14 - 12:47:02
 Todays High: 57.7°F 09:37
 Todays Low: 49.3°F 03:47
 Rain Today: 0.00 in
 Season Total: 3.66 in

Foresthill Wx: Monthly,Yearly, Highs and Lows 

Foresthill  
This Weather Data is coming from the main Foresthill
Weather site located on Melody ln at the 2860 foot
elevation
Not Foresthill Probe 2
Weather Data
Month
  High
Month
  Low
Year
High
Year
Low
Temp 86.5F
10/6/14
43.1F
10/21/14
96.4F
7/14/14
32.0F
2/4/14
Humidity 98%
10/26/14
9%
10/12/14
100%
3/1/14
9%
10/12/14
Heat Index 83.4F
10/6/14
49.0F
10/21/14
95.0F
7/14/14
35.5F
2/5/14
Wind Chill 86.5F
10/6/14
36.3F
10/21/14
96.4F
7/14/14
21.6F
2/5/14
Wind Gust 27 mph
10/25/14
0 mph
10/1/14
40 mph
3/12/14
0 mph
1/1/14
Barometer 30.19 in
10/26/14
29.77 in
10/14/14
30.55 in
1/14/14
29.47 in
2/28/14
ET 0.18 in
10/8/14
0.00 in
10/1/14
0.27 in
7/4/14
0.00 in
1/1/14
Dew Point 53.8F
10/16/14
17.4F
10/12/14
64.6F
8/4/14
5.1F
1/4/14
Infrared Satellite Regional Radar Satellite Imagery Sacramento,CA.  (click to enlarge)
NWS Weather Forecast - Outlook: This Afternoon and Tonight
This
Afternoon

Rain Likely. Chance for Measurable Precipitation 70%
Rain
Likely
Hi 57 °F
NWS forecast: Rain likely. Cloudy, with a high near 57. South southwest wind around 8 mph. Chance of precipitation is 70%. New rainfall amounts between a tenth and quarter of an inch possible.
Tonight

Showers. Chance for Measurable Precipitation 90%
Showers

Lo 43 °F
NWS forecast: Showers and possibly a thunderstorm. Low around 43. West wind 5 to 8 mph. Chance of precipitation is 90%. New rainfall amounts between a half and three quarters of an inch possible.
NWS Weather Forecast - Summary
Updated: Friday, October 31, 2014 - 4:47am (PDT)
YR.NO 10 Day Weather forecast
Last update: 10/31/2014 @ 00:04
Next update: 10/31/2014 @ 13:00
Provided by: 22
      Temperature Precipitation Pressure Wind  
Today
10/31/2014
11:00 17:00 55°F 0.27 in 29.87 inHg Light breeze from south 4 mph
  17:00 23:00 45°F 0.32 in 29.85 inHg Gentle breeze from west 8 mph
  23:00 05:00 41°F 0.04 in 29.81 inHg Light breeze from east 4 mph
    (Click to enlarge)
meteogram

    Forecast for next 9 days

      Temperature Precip Pressure Wind  
Saturday
11/01/2014
05:00 11:00 39°F 0.09 in 29.84 inHg Light air from east-southeast 2 mph
  11:00 17:00 43°F 0.11 in 29.98 inHg Light breeze from southeast 4 mph
  17:00 22:00 45°F   29.99 inHg Light air from south-southeast 2 mph
  22:00 04:00 36°F   30.04 inHg Light air from east-northeast 2 mph
      Temperature Precip Pressure Wind  
Sunday
11/02/2014
07:00 13:00 36°F   30.07 inHg Light breeze from east-northeast 5 mph
  10:00 16:00 52°F   30.07 inHg Light air from north-northeast 1 mph
  16:00 22:00 52°F   30.07 inHg Light breeze from west-northwest 4 mph
  22:00 04:00 37°F   30.13 inHg Light breeze from east-northeast 6 mph
      Temperature Precip Pressure Wind  
Monday
11/03/2014
04:00 10:00 36°F   30.15 inHg Light breeze from east-northeast 7 mph
  10:00 16:00 54°F   30.21 inHg Light air from west-northwest 1 mph
  16:00 22:00 54°F   30.21 inHg Light air from west 2 mph
  22:00 04:00 37°F   30.25 inHg Light breeze from east-northeast 4 mph
      Temperature Precip Pressure Wind  
Tuesday
11/04/2014
04:00 10:00 37°F   30.25 inHg Light breeze from east 4 mph
  10:00 16:00 57°F   30.27 inHg Light air from west 2 mph
  16:00 22:00 57°F   30.20 inHg Light air from west 3 mph
  22:00 04:00 43°F   30.18 inHg Light breeze from east-northeast 5 mph
      Temperature Precip Pressure Wind  
Wednesday
11/05/2014
04:00 10:00 41°F   30.14 inHg Light breeze from east-northeast 4 mph
  10:00 16:00 63°F   30.14 inHg Light air from southwest 1 mph
  16:00 22:00 63°F   30.05 inHg Light air from west 1 mph
  22:00 04:00 43°F   30.04 inHg Light breeze from east 4 mph
      Temperature Precip Pressure Wind  
Thursday
11/06/2014
04:00 10:00 39°F   30.00 inHg Light breeze from east-northeast 5 mph
  10:00 16:00 59°F 0.03 in 30.04 inHg Gentle breeze from south-southwest 8 mph
  16:00 22:00 52°F 0.36 in 30.07 inHg Light air from west-southwest 2 mph
  22:00 04:00 48°F 0.04 in 30.17 inHg Light air from southeast 3 mph
      Temperature Precip Pressure Wind  
Friday
11/07/2014
04:00 10:00 46°F   30.19 inHg Light air from east-northeast 3 mph
  10:00 16:00 52°F   30.19 inHg Light air from west-northwest 2 mph
  16:00 22:00 55°F   30.12 inHg Light breeze from west-northwest 5 mph
  22:00 04:00 41°F   30.12 inHg Light breeze from east-northeast 6 mph
      Temperature Precip Pressure Wind  
Saturday
11/08/2014
04:00 10:00 41°F   30.09 inHg Light breeze from east-northeast 7 mph
  10:00 16:00 59°F   30.11 inHg Light air from north-northeast 1 mph
  16:00 22:00 57°F   30.05 inHg Light air from southwest 3 mph
  22:00 04:00 41°F   30.07 inHg Light air from east 3 mph
      Temperature Precip Pressure Wind  
Sunday
11/09/2014
04:00 10:00 39°F   30.01 inHg Light breeze from east-northeast 4 mph
  10:00 16:00 59°F   29.99 inHg Light air from south-southwest 3 mph

Weather History For Friday, October 31, 2014


On this Day - In Weather History ...
Data courtesy of weatherforyou.com
powered by Cumulus v1.9.3 (1059)
Ambient Weather VWS v14.00
Top Contact Website Map Copyright © 2007 - 2014 Foresthillweather.com Never base important decisions on this or any weather information obtained from the Internet